RYR4622 ESSA-EETN

Flight info

Callsign RYR4622
Flight time 0h 42m
Altitude 31000
Route TOVRI N851 RIKUM DCT DOBAN
Aircraft B738/M-SDE2E3FGHIRWXY/LB1

Departure

Time 2026-05-05 18:16
Airport Stockholm-Arlanda Airport (ESSA)

Arrival

Time 2026-05-05 18:59
Airport Lennart Meri Tallinn Airport (EETN)
Time Latitude Longitude Altitude Speed Heading
2026-05-05 17:38 59.64722 17.92675 111 ft 0 kts 28°
2026-05-05 18:03 59.64711 17.92663 111 ft 2 kts 29°
2026-05-05 18:03 59.64689 17.92646 110 ft 4 kts
2026-05-05 18:03 59.64667 17.92660 109 ft 4 kts 310°
2026-05-05 18:04 59.64662 17.92673 110 ft 1 kts 301°
2026-05-05 18:08 59.64666 17.92657 111 ft 4 kts 298°
2026-05-05 18:08 59.64682 17.92573 109 ft 9 kts 287°
2026-05-05 18:08 59.64699 17.92457 109 ft 7 kts 285°
2026-05-05 18:08 59.64711 17.92371 110 ft 6 kts 286°
2026-05-05 18:09 59.64720 17.92304 111 ft 5 kts 280°
2026-05-05 18:09 59.64704 17.92222 110 ft 9 kts 223°
2026-05-05 18:09 59.64630 17.92177 111 ft 13 kts 190°
2026-05-05 18:09 59.64544 17.92146 111 ft 12 kts 190°
2026-05-05 18:10 59.64461 17.92116 111 ft 12 kts 190°
2026-05-05 18:10 59.64381 17.92087 113 ft 10 kts 192°
2026-05-05 18:10 59.64336 17.92001 112 ft 10 kts 257°
2026-05-05 18:10 59.64299 17.91895 112 ft 10 kts 203°
2026-05-05 18:11 59.64225 17.91864 113 ft 13 kts 190°
2026-05-05 18:11 59.64127 17.91828 113 ft 15 kts 190°
2026-05-05 18:11 59.64030 17.91793 112 ft 14 kts 191°
2026-05-05 18:11 59.63950 17.91764 110 ft 10 kts 190°
2026-05-05 18:12 59.63879 17.91735 108 ft 11 kts 197°
2026-05-05 18:12 59.63828 17.91683 105 ft 5 kts 217°
2026-05-05 18:12 59.63826 17.91680 106 ft 0 kts 218°
2026-05-05 18:12 59.63810 17.91653 106 ft 6 kts 220°
2026-05-05 18:13 59.63781 17.91606 106 ft 4 kts 220°
2026-05-05 18:13 59.63759 17.91568 106 ft 4 kts 220°
2026-05-05 18:13 59.63734 17.91520 106 ft 6 kts 232°
2026-05-05 18:13 59.63729 17.91429 108 ft 7 kts 289°
2026-05-05 18:14 59.63763 17.91361 109 ft 7 kts 331°
2026-05-05 18:14 59.63804 17.91352 108 ft 2 kts
2026-05-05 18:14 59.63805 17.91353 108 ft 0 kts
2026-05-05 18:15 59.63820 17.91358 108 ft 8 kts 10°
2026-05-05 18:15 59.64124 17.91468 105 ft 84 kts 10°
2026-05-05 18:16 59.64930 17.91761 106 ft 150 kts 11°
2026-05-05 18:16 59.66014 17.92151 667 ft 165 kts 11°
2026-05-05 18:16 59.67167 17.92582 1502 ft 171 kts
2026-05-05 18:16 59.68364 17.93016 2283 ft 182 kts
2026-05-05 18:17 59.69690 17.93486 2819 ft 201 kts
2026-05-05 18:17 59.71089 17.93990 3421 ft 207 kts
2026-05-05 18:17 59.72515 17.94500 4078 ft 210 kts
2026-05-05 18:17 59.73961 17.95107 4642 ft 220 kts 16°
2026-05-05 18:18 59.75242 17.97051 4907 ft 247 kts 52°
2026-05-05 18:18 59.75807 18.00304 5239 ft 258 kts 85°
2026-05-05 18:18 59.75760 18.04016 5559 ft 278 kts 94°
2026-05-05 18:18 59.75590 18.07840 6289 ft 285 kts 95°
2026-05-05 18:19 59.75425 18.11754 7218 ft 285 kts 94°
2026-05-05 18:19 59.75291 18.15708 8082 ft 289 kts 88°
2026-05-05 18:19 59.75720 18.19604 8922 ft 291 kts 69°
2026-05-05 18:19 59.76431 18.23390 9761 ft 295 kts 67°
2026-05-05 18:20 59.77180 18.27257 10326 ft 310 kts 67°
2026-05-05 18:20 59.77976 18.31406 10668 ft 329 kts 68°
2026-05-05 18:20 59.78784 18.35715 11305 ft 337 kts 68°
2026-05-05 18:20 59.79585 18.40071 12040 ft 343 kts 69°
2026-05-05 18:21 59.80399 18.44562 12786 ft 349 kts 69°
2026-05-05 18:21 59.81222 18.49149 13546 ft 356 kts 69°
2026-05-05 18:21 59.82054 18.53824 14182 ft 364 kts 69°
2026-05-05 18:21 59.82908 18.58647 14710 ft 376 kts 69°
2026-05-05 18:22 59.83787 18.63627 15268 ft 387 kts 69°
2026-05-05 18:22 59.84686 18.68742 15886 ft 397 kts 69°
2026-05-05 18:22 59.85606 18.73994 16465 ft 408 kts 69°
2026-05-05 18:22 59.86550 18.79398 17051 ft 419 kts 69°
2026-05-05 18:23 59.87517 18.84947 17631 ft 429 kts 69°
2026-05-05 18:23 59.88490 18.90552 18197 ft 440 kts 69°
2026-05-05 18:23 59.89496 18.96363 18753 ft 447 kts 70°
2026-05-05 18:23 59.90506 19.02222 19489 ft 448 kts 70°
2026-05-05 18:24 59.91517 19.08104 20236 ft 450 kts 70°
2026-05-05 18:24 59.92532 19.14024 20914 ft 453 kts 70°
2026-05-05 18:24 59.93554 19.20002 21551 ft 458 kts 70°
2026-05-05 18:24 59.94584 19.26041 22168 ft 462 kts 70°
2026-05-05 18:25 59.95605 19.32045 22813 ft 465 kts 70°
2026-05-05 18:25 59.96282 19.36209 23239 ft 468 kts 74°
2026-05-05 18:25 59.97058 19.44705 23946 ft 471 kts 88°
2026-05-05 18:25 59.97077 19.51239 24484 ft 471 kts 95°
2026-05-05 18:26 59.96958 19.57787 25025 ft 473 kts 96°
2026-05-05 18:26 59.96807 19.64356 25533 ft 476 kts 96°
2026-05-05 18:26 59.96651 19.70980 26024 ft 479 kts 96°
2026-05-05 18:26 59.96502 19.77640 26526 ft 482 kts 96°
2026-05-05 18:27 59.96362 19.84333 26802 ft 485 kts 96°
2026-05-05 18:27 59.96230 19.90985 26774 ft 485 kts 96°
2026-05-05 18:27 59.96103 19.97676 26775 ft 480 kts 96°
2026-05-05 18:27 59.95977 20.04326 26774 ft 479 kts 96°
2026-05-05 18:28 59.95714 20.17643 26785 ft 481 kts 96°
2026-05-05 18:28 59.95576 20.24309 26779 ft 482 kts 96°
2026-05-05 18:28 59.95434 20.30998 26781 ft 482 kts 96°
2026-05-05 18:29 59.95288 20.37677 26770 ft 482 kts 96°
2026-05-05 18:29 59.95139 20.44348 26765 ft 481 kts 97°
2026-05-05 18:29 59.94989 20.50924 26764 ft 481 kts 97°
2026-05-05 18:29 59.94834 20.57578 26762 ft 480 kts 97°
2026-05-05 18:30 59.94673 20.64273 26892 ft 486 kts 97°
2026-05-05 18:30 59.94508 20.71011 27445 ft 486 kts 97°
2026-05-05 18:30 59.94343 20.77704 28220 ft 480 kts 97°
2026-05-05 18:30 59.94177 20.84331 29006 ft 475 kts 97°
2026-05-05 18:31 59.94010 20.90875 29749 ft 471 kts 97°
2026-05-05 18:31 59.93839 20.97382 30362 ft 468 kts 98°
2026-05-05 18:31 59.93665 21.03852 30849 ft 468 kts 98°
2026-05-05 18:31 59.93484 21.10368 30847 ft 472 kts 98°
2026-05-05 18:32 59.93303 21.16807 30685 ft 472 kts 98°
2026-05-05 18:32 59.93117 21.23326 30427 ft 469 kts 98°
2026-05-05 18:32 59.92934 21.29737 30184 ft 466 kts 98°
2026-05-05 18:32 59.92744 21.36227 29936 ft 464 kts 98°
2026-05-05 18:33 59.92553 21.42635 29646 ft 463 kts 98°
2026-05-05 18:33 59.92358 21.49051 29364 ft 463 kts 98°
2026-05-05 18:33 59.92161 21.55436 29080 ft 462 kts 98°
2026-05-05 18:33 59.91961 21.61818 28800 ft 461 kts 98°
2026-05-05 18:34 59.91759 21.68175 28521 ft 459 kts 98°
2026-05-05 18:34 59.91554 21.74527 28243 ft 458 kts 98°
2026-05-05 18:34 59.91350 21.80764 27967 ft 457 kts 98°
2026-05-05 18:34 59.91141 21.87052 27663 ft 453 kts 99°
2026-05-05 18:35 59.90933 21.93283 27304 ft 448 kts 99°
2026-05-05 18:35 59.90722 21.99462 26910 ft 445 kts 99°
2026-05-05 18:35 59.90510 22.05594 26524 ft 442 kts 99°
2026-05-05 18:35 59.90296 22.11687 26144 ft 439 kts 99°
2026-05-05 18:36 59.90081 22.17738 25764 ft 437 kts 99°
2026-05-05 18:36 59.89863 22.23758 25389 ft 434 kts 99°
2026-05-05 18:36 59.89644 22.29742 25016 ft 432 kts 99°
2026-05-05 18:36 59.89427 22.35618 24649 ft 430 kts 99°
2026-05-05 18:37 59.89205 22.41548 24276 ft 428 kts 99°
2026-05-05 18:37 59.88981 22.47442 23907 ft 427 kts 99°
2026-05-05 18:37 59.88756 22.53330 23533 ft 425 kts 99°
2026-05-05 18:37 59.88528 22.59191 23094 ft 424 kts 99°
2026-05-05 18:38 59.88299 22.65035 22684 ft 422 kts 99°
2026-05-05 18:38 59.88069 22.70842 22290 ft 419 kts 99°
2026-05-05 18:38 59.87838 22.76605 21921 ft 416 kts 99°
2026-05-05 18:38 59.87606 22.82335 21552 ft 414 kts 99°
2026-05-05 18:39 59.87377 22.87940 21193 ft 411 kts 99°
2026-05-05 18:39 59.87143 22.93593 20834 ft 409 kts 99°
2026-05-05 18:39 59.86907 22.99215 20471 ft 406 kts 100°
2026-05-05 18:39 59.86671 23.04803 20114 ft 404 kts 100°
2026-05-05 18:40 59.86433 23.10366 19762 ft 402 kts 100°
2026-05-05 18:40 59.86194 23.15897 19405 ft 400 kts 100°
2026-05-05 18:40 59.85954 23.21397 19051 ft 399 kts 100°
2026-05-05 18:40 59.85713 23.26885 18701 ft 397 kts 100°
2026-05-05 18:41 59.85474 23.32270 18353 ft 396 kts 100°
2026-05-05 18:41 59.85230 23.37716 17975 ft 394 kts 100°
2026-05-05 18:41 59.84984 23.43139 17580 ft 393 kts 100°
2026-05-05 18:41 59.84738 23.48528 17206 ft 390 kts 100°
2026-05-05 18:42 59.84492 23.53885 16843 ft 388 kts 100°
2026-05-05 18:42 59.84245 23.59202 16493 ft 385 kts 100°
2026-05-05 18:42 59.83998 23.64477 16145 ft 382 kts 100°
2026-05-05 18:42 59.83750 23.69720 15799 ft 380 kts 100°
2026-05-05 18:43 59.83502 23.74924 15456 ft 377 kts 100°
2026-05-05 18:43 59.83253 23.80097 15117 ft 375 kts 100°
2026-05-05 18:43 59.83008 23.85162 14782 ft 372 kts 100°
2026-05-05 18:43 59.82758 23.90270 14443 ft 370 kts 100°
2026-05-05 18:44 59.82508 23.95348 14098 ft 368 kts 100°
2026-05-05 18:44 59.82257 24.00397 13768 ft 366 kts 100°
2026-05-05 18:44 59.82005 24.05418 13397 ft 365 kts 100°
2026-05-05 18:44 59.81754 24.10409 13027 ft 361 kts 100°
2026-05-05 18:45 59.81505 24.15322 12672 ft 353 kts 99°
2026-05-05 18:45 59.81261 24.20112 12364 ft 344 kts 99°
2026-05-05 18:45 59.81020 24.24791 12054 ft 337 kts 99°
2026-05-05 18:45 59.80785 24.29322 11745 ft 332 kts 99°
2026-05-05 18:46 59.80548 24.33865 11428 ft 330 kts 99°
2026-05-05 18:46 59.80309 24.38383 11131 ft 328 kts 99°
2026-05-05 18:46 59.80058 24.42865 10819 ft 325 kts 103°
2026-05-05 18:46 59.79307 24.46980 10574 ft 311 kts 127°
2026-05-05 18:47 59.78089 24.50436 10338 ft 303 kts 132°
2026-05-05 18:47 59.76811 24.53751 10044 ft 301 kts 133°
2026-05-05 18:47 59.75533 24.57013 9910 ft 301 kts 133°
2026-05-05 18:47 59.74245 24.60306 9822 ft 304 kts 133°
2026-05-05 18:48 59.72956 24.63622 9471 ft 303 kts 133°
2026-05-05 18:48 59.71690 24.66895 9093 ft 302 kts 132°
2026-05-05 18:48 59.70422 24.70185 8768 ft 300 kts 132°
2026-05-05 18:48 59.69162 24.73456 8461 ft 297 kts 131°
2026-05-05 18:49 59.67912 24.76702 8149 ft 295 kts 131°
2026-05-05 18:49 59.66672 24.79919 7855 ft 293 kts 131°
2026-05-05 18:49 59.65440 24.83114 7567 ft 291 kts 131°
2026-05-05 18:49 59.64218 24.86276 7273 ft 289 kts 131°
2026-05-05 18:50 59.63001 24.89410 6984 ft 287 kts 130°
2026-05-05 18:50 59.61798 24.92474 6700 ft 284 kts 130°
2026-05-05 18:50 59.60584 24.95529 6414 ft 282 kts 130°
2026-05-05 18:50 59.59370 24.98544 6144 ft 280 kts 130°
2026-05-05 18:51 59.58156 25.01529 5845 ft 278 kts 131°
2026-05-05 18:51 59.56959 25.04461 5679 ft 271 kts 131°
2026-05-05 18:51 59.55781 25.07339 5413 ft 269 kts 131°
2026-05-05 18:51 59.54618 25.10203 5139 ft 267 kts 130°
2026-05-05 18:52 59.53469 25.13064 4863 ft 264 kts 130°
2026-05-05 18:52 59.52342 25.15876 4602 ft 260 kts 130°
2026-05-05 18:52 59.51227 25.18656 4380 ft 255 kts 130°
2026-05-05 18:52 59.50061 25.21124 4251 ft 239 kts 149°
2026-05-05 18:53 59.48588 25.22171 4182 ft 223 kts 176°
2026-05-05 18:53 59.47051 25.22483 4059 ft 222 kts 180°
2026-05-05 18:53 59.45531 25.22738 3936 ft 215 kts 180°
2026-05-05 18:53 59.44088 25.22743 3806 ft 199 kts 201°
2026-05-05 18:54 59.42992 25.21359 3782 ft 187 kts 235°
2026-05-05 18:54 59.42208 25.19265 3456 ft 197 kts 239°
2026-05-05 18:54 59.41527 25.17014 3261 ft 185 kts 257°
2026-05-05 18:54 59.41394 25.14591 3053 ft 176 kts 267°
2026-05-05 18:55 59.41315 25.12213 2820 ft 172 kts 270°
2026-05-05 18:55 59.41291 25.09880 2573 ft 169 kts 272°
2026-05-05 18:55 59.41288 25.07618 2349 ft 166 kts 272°
2026-05-05 18:55 59.41289 25.05369 2123 ft 163 kts 272°
2026-05-05 18:56 59.41291 25.03214 1899 ft 152 kts 272°
2026-05-05 18:56 59.41293 25.01201 1692 ft 144 kts 272°
2026-05-05 18:56 59.41295 24.99233 1491 ft 143 kts 272°
2026-05-05 18:56 59.41298 24.97326 1259 ft 137 kts 271°
2026-05-05 18:57 59.41301 24.95519 1153 ft 127 kts 271°
2026-05-05 18:57 59.41298 24.93750 980 ft 133 kts 271°
2026-05-05 18:57 59.41305 24.91940 791 ft 134 kts 271°
2026-05-05 18:57 59.41311 24.90120 589 ft 136 kts 270°
2026-05-05 18:58 59.41316 24.88262 386 ft 135 kts 269°
2026-05-05 18:58 59.41317 24.86424 171 ft 133 kts 269°
2026-05-05 18:58 59.41319 24.84772 161 ft 105 kts 270°
2026-05-05 18:58 59.41324 24.83575 163 ft 70 kts 270°
2026-05-05 18:59 59.41325 24.82828 160 ft 45 kts 270°
2026-05-05 18:59 59.41327 24.82339 161 ft 29 kts 270°
2026-05-05 18:59 59.41329 24.81958 162 ft 27 kts 270°
2026-05-05 18:59 59.41330 24.81602 162 ft 25 kts 270°
2026-05-05 19:00 59.41332 24.81319 162 ft 16 kts 274°
2026-05-05 19:00 59.41377 24.81188 161 ft 9 kts 336°
2026-05-05 19:00 59.41421 24.81180 161 ft 5 kts
2026-05-05 19:00 59.41428 24.81180 161 ft 0 kts
2026-05-05 19:01 59.41429 24.81180 161 ft 1 kts
2026-05-05 19:01 59.41450 24.81176 161 ft 6 kts 348°
2026-05-05 19:01 59.41499 24.81095 161 ft 12 kts 291°
2026-05-05 19:02 59.41506 24.80935 161 ft 12 kts 270°
2026-05-05 19:02 59.41506 24.80777 161 ft 11 kts 270°
2026-05-05 19:02 59.41507 24.80624 161 ft 11 kts 271°
2026-05-05 19:02 59.41528 24.80512 161 ft 8 kts 302°
2026-05-05 19:03 59.41557 24.80441 161 ft 6 kts 322°
2026-05-05 19:03 59.41584 24.80406 161 ft 4 kts 326°
2026-05-05 19:03 59.41601 24.80383 161 ft 2 kts 325°
2026-05-05 19:03 59.41606 24.80377 161 ft 0 kts 325°